Toluca Jose Maria, Mexico

2:16 PM CST on November 20, 2017 (GMT -0600)
Lic Adolfo Lopez Mateos International

Weather History for MMTO - October, 2012

Change the Weather History Date:

Wednesday, October 17, 2012

  Actual Average Record
Temperature  
Mean Temperature 62 °F -  
Max Temperature 73 °F 68 °F 73 °F (1996)
Min Temperature 50 °F 43 °F 37 °F (1996)
Degree Days  
Heating Degree Days 4    
Growing Degree Days 12 (Base 50)    
Moisture  
Dew Point 46 °F    
Average Humidity 69    
Maximum Humidity 94    
Minimum Humidity 29    
Precipitation  
Precipitation 0.00 in - - ()
Sea Level Pressure  
Sea Level Pressure 30.15 in    
Wind  
Wind Speed 5 mph ()    
Max Wind Speed 10 mph    
Max Gust Speed -    
Visibility 5.0 miles    
Events      
Averages and records for this station are not official NWS values.
T = Trace of Precipitation, MM = Missing Value Source: Averaged Metar Reports

Daily Weather History Graph

Daily Weather History Graph

Search for Another Location

Airport or City:

Trip Planner

Search our weather history database for the weather conditions in past years. The results will help you decide how hot, cold, wet, or windy it might be!

Date:

Astronomy

Oct. 17, 2012 Rise Set
Actual Time 7:33 AM CDT 7:13 PM CDT
Civil Twilight 7:11 AM CDT 7:35 PM CDT
Nautical Twilight 6:45 AM CDT 8:01 PM CDT
Astronomical Twilight 6:20 AM CDT 8:26 PM CDT
Moon 9:46 AM CDT (10/17) 9:15 PM CDT (10/17)
Length of Visible Light 12h 24m
Length of Day
11h 39m
Waxing Crescent, 7% of the Moon is Illuminated
Oct 17
Waxing Crescent
Oct 21
First Quarter
Oct 29
Full
Nov 6
Last Quarter
Nov 13
New

Hourly Weather History & Observations

Time (CDT) Temp. Dew Point Humidity Pressure Visibility Wind Dir Wind Speed Gust Speed Precip Events Conditions
12:45 AM 55.4 °F 50.0 °F 82% 29.75 in 7.0 mi NW 4.6 mph - N/A   Mostly Cloudy
1:45 AM 53.6 °F 50.0 °F 88% 30.34 in 7.0 mi WNW 4.6 mph - N/A   Scattered Clouds
2:45 AM 51.8 °F 48.2 °F 88% 30.34 in 7.0 mi NNW 4.6 mph - N/A   Scattered Clouds
3:45 AM 50.0 °F 48.2 °F 94% 29.74 in 7.0 mi NW 4.6 mph - N/A   Scattered Clouds
4:45 AM 50.0 °F 48.2 °F 94% 30.32 in 5.0 mi NW 8.1 mph - N/A   Scattered Clouds
5:45 AM 50.0 °F 48.2 °F 94% 30.33 in 3.0 mi NNW 5.8 mph - N/A   Scattered Clouds
6:45 AM 51.8 °F 48.2 °F 88% 29.81 in 3.0 mi NNE 3.5 mph - N/A   Scattered Clouds
7:18 AM 50.0 °F 48.2 °F 94% 30.34 in 2.0 mi NNE 5.8 mph - N/A   Scattered Clouds
7:45 AM 50.0 °F 48.2 °F 94% 30.35 in 2.0 mi North - - N/A   Mostly Cloudy
8:43 AM 51.8 °F 48.2 °F 88% 30.35 in 2.0 mi Calm Calm - N/A   Scattered Clouds
9:42 AM 55.4 °F 48.2 °F 77% 29.87 in 2.0 mi NW 3.5 mph - N/A   Scattered Clouds
10:45 AM 60.8 °F 50.0 °F 68% 30.38 in 3.0 mi WNW 10.4 mph - N/A   Haze
11:42 AM 64.4 °F 48.2 °F 56% 30.37 in 3.0 mi WNW 10.4 mph - N/A   Haze
12:42 PM 66.2 °F 44.6 °F 46% 29.77 in 5.0 mi NW 6.9 mph - N/A   Mostly Cloudy
1:45 PM 69.8 °F 42.8 °F 38% 30.31 in 6.0 mi NNE 5.8 mph - N/A   Mostly Cloudy
2:45 PM 69.8 °F 44.6 °F 40% 30.27 in 7.0 mi NE 8.1 mph - N/A   Mostly Cloudy
3:45 PM 73.4 °F 39.2 °F 29% 29.65 in 7.0 mi NE 5.8 mph - N/A   Mostly Cloudy
4:45 PM 73.4 °F 41.0 °F 31% 30.24 in 7.0 mi ENE 6.9 mph - N/A   Mostly Cloudy
5:45 PM 69.8 °F 39.2 °F 33% 30.25 in 7.0 mi NE 10.4 mph - N/A   Mostly Cloudy
6:45 PM 64.4 °F 41.0 °F 42% 29.72 in 7.0 mi ENE 6.9 mph - N/A   Mostly Cloudy
7:45 PM 60.8 °F 41.0 °F 48% 30.30 in 7.0 mi NE 6.9 mph - N/A   Mostly Cloudy
8:45 PM 57.2 °F 50.0 °F 77% 30.33 in 5.0 mi South 5.8 mph - N/A   Scattered Clouds
9:45 PM 55.4 °F 50.0 °F 82% 29.84 in 5.0 mi Calm Calm - N/A   Scattered Clouds
10:45 PM 53.6 °F 48.2 °F 82% 30.37 in 4.0 mi Calm Calm - N/A   Mostly Cloudy
11:45 PM 53.6 °F 48.2 °F 82% 30.36 in 4.0 mi NNW 4.6 mph - N/A   Mostly Cloudy